Monticello, AR

12:16 AM CDT on March 27, 2017 (GMT -0500)
Monticello Municipal-Ellis

Weather History for KLLQ - December, 2012

Change the Weather History Date:

Friday, December 7, 2012

  Actual Average Record
Temperature  
Mean Temperature 62 °F -  
Max Temperature 68 °F 57 °F 80 °F (1966)
Min Temperature 57 °F 36 °F 12 °F (1950)
Degree Days  
Heating Degree Days 2    
Growing Degree Days 12 (Base 50)    
Moisture  
Dew Point 56 °F    
Average Humidity 84    
Maximum Humidity 96    
Minimum Humidity 63    
Precipitation  
Precipitation 0.00 in - - ()
Sea Level Pressure  
Sea Level Pressure 29.91 in    
Wind  
Wind Speed 5 mph (SSW)    
Max Wind Speed 10 mph    
Max Gust Speed -    
Visibility 9 miles    
Events      
Averages and records for this station are not official NWS values.
T = Trace of Precipitation, MM = Missing Value Source: NWS Daily Summary

Daily Weather History Graph

Daily Weather History Graph

Search for Another Location

Airport or City:

Trip Planner

Search our weather history database for the weather conditions in past years. The results will help you decide how hot, cold, wet, or windy it might be!

Date:

Astronomy

Dec. 07, 2012 Rise Set
Actual Time 6:58 AM CST 4:58 PM CST
Civil Twilight 6:31 AM CST 5:26 PM CST
Nautical Twilight 6:00 AM CST 5:57 PM CST
Astronomical Twilight 5:30 AM CST 6:27 PM CST
Moon 12:34 AM CST (12/7) 12:41 PM CST (12/7)
Length of Visible Light 10h 54m
Length of Day
9h 59m
Last Quarter, 38% of the Moon is Illuminated
Dec 7
Last Quarter
Dec 13
New
Dec 19
First Quarter
Dec 28
Full
Jan 4
Last Quarter

Hourly Weather History & Observations

Time (CST) Temp. Dew Point Humidity Pressure Visibility Wind Dir Wind Speed Gust Speed Precip Events Conditions
12:19 AM 60.8 °F 57.2 °F 88% 29.93 in 9.0 mi SSW 3.5 mph - N/A   Overcast
12:53 AM 61.0 °F 59.0 °F 93% 29.92 in 10.0 mi SSW 4.6 mph - N/A   Overcast
1:28 AM 60.8 °F 57.2 °F 88% 29.92 in 10.0 mi SSW 4.6 mph - N/A   Mostly Cloudy
1:53 AM 60.1 °F 57.9 °F 93% 29.92 in 9.0 mi South 3.5 mph - N/A   Overcast
2:09 AM 60.8 °F 57.2 °F 88% 29.92 in 8.0 mi SW 4.6 mph - N/A   Mostly Cloudy
2:53 AM 61.0 °F 59.0 °F 93% 29.91 in 7.0 mi SSW 4.6 mph - N/A   Overcast
3:50 AM 60.8 °F 57.2 °F 88% 29.92 in 7.0 mi WSW 4.6 mph - N/A   Mostly Cloudy
3:53 AM 60.1 °F 57.9 °F 93% 29.91 in 7.0 mi WSW 3.5 mph - N/A   Overcast
4:24 AM 59.0 °F 57.2 °F 94% 29.91 in 6.0 mi West 4.6 mph - N/A   Mostly Cloudy
4:33 AM 60.8 °F 57.2 °F 88% 29.91 in 4.0 mi SSW 3.5 mph - N/A   Overcast
4:53 AM 59.0 °F 57.9 °F 96% 29.92 in 4.0 mi WSW 4.6 mph - N/A   Overcast
5:53 AM 59.0 °F 57.0 °F 93% 29.93 in 9.0 mi WSW 5.8 mph - N/A   Overcast
6:05 AM 59.0 °F 57.2 °F 94% 29.94 in 10.0 mi WSW 3.5 mph - N/A   Overcast
6:53 AM 57.9 °F 55.9 °F 93% 29.95 in 8.0 mi WSW 3.5 mph - N/A   Overcast
7:45 AM 57.2 °F 55.4 °F 94% 29.95 in 7.0 mi Calm Calm - N/A   Overcast
7:53 AM 57.9 °F 55.9 °F 93% 29.94 in 6.0 mi SSW 3.5 mph - N/A   Overcast
8:51 AM 59.0 °F 55.4 °F 88% 29.96 in 9.0 mi SSW 6.9 mph - N/A   Overcast
8:53 AM 59.0 °F 55.9 °F 90% 29.96 in 9.0 mi SSW 5.8 mph - N/A   Overcast
9:27 AM 60.8 °F 55.4 °F 82% 29.97 in 10.0 mi SSW 8.1 mph - N/A   Overcast
9:53 AM 60.1 °F 55.9 °F 86% 29.96 in 10.0 mi South 6.9 mph - N/A   Overcast
10:49 AM 62.6 °F 55.4 °F 77% 29.95 in 10.0 mi SSW 5.8 mph - N/A   Overcast
10:53 AM 62.1 °F 55.9 °F 80% 29.95 in 10.0 mi SW 9.2 mph - N/A   Overcast
11:48 AM 62.6 °F 55.4 °F 77% 29.93 in 10.0 mi SW 10.4 mph - N/A   Overcast
11:53 AM 63.0 °F 54.0 °F 72% 29.92 in 10.0 mi WSW 9.2 mph - N/A   Overcast
12:53 PM 64.9 °F 54.0 °F 68% 29.88 in 10.0 mi South 4.6 mph - N/A   Overcast
1:53 PM 68.0 °F 55.0 °F 63% 29.85 in 10.0 mi SSW 10.4 mph - N/A   Overcast
2:04 PM 66.2 °F 55.4 °F 68% 29.85 in 10.0 mi South 8.1 mph - N/A   Overcast
2:38 PM 66.2 °F 55.4 °F 68% 29.85 in 10.0 mi SSE 5.8 mph - N/A   Overcast
2:53 PM 66.9 °F 55.9 °F 68% 29.85 in 10.0 mi SSE 8.1 mph - N/A   Overcast
3:53 PM 66.0 °F 55.9 °F 70% 29.85 in 10.0 mi SSE 3.5 mph - N/A   Overcast
4:53 PM 64.0 °F 57.0 °F 78% 29.86 in 10.0 mi SSE 3.5 mph - N/A   Mostly Cloudy
5:53 PM 62.1 °F 57.0 °F 84% 29.86 in 10.0 mi SSE 4.6 mph - N/A   Partly Cloudy
7:53 PM 61.0 °F 57.0 °F 87% 29.88 in 10.0 mi South 5.8 mph - N/A   Overcast
8:53 PM 61.0 °F 57.0 °F 87% 29.88 in 10.0 mi South 3.5 mph - N/A   Partly Cloudy
10:53 PM 62.1 °F 57.0 °F 84% 29.89 in 10.0 mi South 4.6 mph - N/A   Overcast
11:53 PM 62.1 °F 55.9 °F 80% 29.88 in 10.0 mi South 6.9 mph - N/A   Overcast